User: anonymous   Login
Location: Melbourne
(37.8170°S, 144.9670°E)
Time: 17:51:19
(UTC+11:00)
Language:

ERBS - Orbit

View from above orbital plane
View from above orbital plane
View from above satellite
View from above satellite

Ground track
Ground track

The orbit data is extracted from the following two-line orbital elements,

1 15354U 84108B   16343.98529764  .00004362  00000-0  10840-3 0  9997
2 15354  57.0084 236.4774 0017167  99.3497 260.9499 15.42354004768840
Epoch (UTC): 08 December 2016 23:38:49
Eccentricity: 0.0017167
inclination: 57.0084°
perigee height: 427 km
apogee height: 451 km
right ascension of ascending node: 236.4774°
argument of perigee: 99.3497°
revolutions per day: 15.42354004
mean anomaly at epoch: 260.9499°
orbit number at epoch: 76884

The dashed part of the orbit path shows where the satellite is in the earth's shadow,  

DLR